Year,Month,Day,Hour,Minute,Value (Times are PST for temperature in C)
2016,08,23,00,00,16.20
2016,08,23,00,01,16.20
2016,08,23,00,02,16.20
2016,08,23,00,03,16.10
2016,08,23,00,04,16.10
2016,08,23,00,05,16.10
2016,08,23,00,06,16.10
2016,08,23,00,07,16.10
2016,08,23,00,08,16.10
2016,08,23,00,09,16.10
2016,08,23,00,10,16.10
2016,08,23,00,11,16.10
2016,08,23,00,12,16.10
2016,08,23,00,13,16.10
2016,08,23,00,14,15.90
2016,08,23,00,15,15.90
2016,08,23,00,16,15.90
2016,08,23,00,17,15.80
2016,08,23,00,18,15.80
2016,08,23,00,19,15.80
2016,08,23,00,20,15.80
2016,08,23,00,21,15.70
2016,08,23,00,22,15.70
2016,08,23,00,23,15.60
2016,08,23,00,24,15.60
2016,08,23,00,25,15.50
2016,08,23,00,26,15.50
2016,08,23,00,27,15.50
2016,08,23,00,28,15.50
2016,08,23,00,29,15.50
2016,08,23,00,30,15.40
2016,08,23,00,31,15.40
2016,08,23,00,32,15.40
2016,08,23,00,33,15.40
2016,08,23,00,34,15.40
2016,08,23,00,35,15.40
2016,08,23,00,36,15.40
2016,08,23,00,37,15.40
2016,08,23,00,38,15.40
2016,08,23,00,39,15.40
2016,08,23,00,40,15.40
2016,08,23,00,41,15.40
2016,08,23,00,42,15.40
2016,08,23,00,43,15.40
2016,08,23,00,44,15.40
2016,08,23,00,45,15.40
2016,08,23,00,46,15.40
2016,08,23,00,47,15.40
2016,08,23,00,48,15.40
2016,08,23,00,49,15.40
2016,08,23,00,50,15.30
2016,08,23,00,51,15.30
2016,08,23,00,52,15.30
2016,08,23,00,53,15.30
2016,08,23,00,54,15.30
2016,08,23,00,55,15.30
2016,08,23,00,56,15.30
2016,08,23,00,57,15.30
2016,08,23,00,58,15.30
2016,08,23,00,59,15.30
2016,08,23,01,00,15.30
2016,08,23,01,01,15.30
2016,08,23,01,02,15.30
2016,08,23,01,03,15.30
2016,08,23,01,04,15.30
2016,08,23,01,05,15.30
2016,08,23,01,06,15.30
2016,08,23,01,07,15.30
2016,08,23,01,08,15.30
2016,08,23,01,09,15.30
2016,08,23,01,10,15.20
2016,08,23,01,11,15.20
2016,08,23,01,12,15.20
2016,08,23,01,13,15.20
2016,08,23,01,14,15.20
2016,08,23,01,15,15.20
2016,08,23,01,16,15.20
2016,08,23,01,17,15.20
2016,08,23,01,18,15.20
2016,08,23,01,19,15.20
2016,08,23,01,20,15.20
2016,08,23,01,21,15.20
2016,08,23,01,22,15.20
2016,08,23,01,23,15.20
2016,08,23,01,24,15.20
2016,08,23,01,25,15.20
2016,08,23,01,26,15.10
2016,08,23,01,27,15.10
2016,08,23,01,28,15.10
2016,08,23,01,29,15.10
2016,08,23,01,30,15.00
2016,08,23,01,31,15.00
2016,08,23,01,32,15.00
2016,08,23,01,33,15.00
2016,08,23,01,34,15.00
2016,08,23,01,35,14.90
2016,08,23,01,36,14.90
2016,08,23,01,37,14.90
2016,08,23,01,38,14.90
2016,08,23,01,39,14.90
2016,08,23,01,40,14.90
2016,08,23,01,41,14.90
2016,08,23,01,42,14.90
2016,08,23,01,43,14.90
2016,08,23,01,44,14.90
2016,08,23,01,45,14.90
2016,08,23,01,46,14.90
2016,08,23,01,47,14.90
2016,08,23,01,48,14.90
2016,08,23,01,49,15.00
2016,08,23,01,50,15.00
2016,08,23,01,51,15.00
2016,08,23,01,52,15.00
2016,08,23,01,53,15.00
2016,08,23,01,54,15.00
2016,08,23,01,55,15.00
2016,08,23,01,56,15.00
2016,08,23,01,57,15.00
2016,08,23,01,58,14.90
2016,08,23,01,59,14.90
2016,08,23,02,00,14.90
2016,08,23,02,01,14.80
2016,08,23,02,02,14.80
2016,08,23,02,03,14.80
2016,08,23,02,04,14.80
2016,08,23,02,05,14.80
2016,08,23,02,06,14.80
2016,08,23,02,07,14.80
2016,08,23,02,08,14.70
2016,08,23,02,09,14.70
2016,08,23,02,10,14.70
2016,08,23,02,11,14.70
2016,08,23,02,12,14.70
2016,08,23,02,13,14.70
2016,08,23,02,14,14.70
2016,08,23,02,15,14.60
2016,08,23,02,16,14.60
2016,08,23,02,17,14.60
2016,08,23,02,18,14.60
2016,08,23,02,19,14.60
2016,08,23,02,20,14.60
2016,08,23,02,21,14.60
2016,08,23,02,22,14.60
2016,08,23,02,23,14.60
2016,08,23,02,24,14.60
2016,08,23,02,25,14.60
2016,08,23,02,26,14.70
2016,08,23,02,27,14.70
2016,08,23,02,28,14.70
2016,08,23,02,29,14.80
2016,08,23,02,30,14.80
2016,08,23,02,31,14.80
2016,08,23,02,32,14.80
2016,08,23,02,33,14.80
2016,08,23,02,34,14.80
2016,08,23,02,35,14.90
2016,08,23,02,36,14.90
2016,08,23,02,37,14.90
2016,08,23,02,38,14.90
2016,08,23,02,39,14.90
2016,08,23,02,40,14.90
2016,08,23,02,41,14.90
2016,08,23,02,42,15.00
2016,08,23,02,43,15.00
2016,08,23,02,44,15.00
2016,08,23,02,45,15.00
2016,08,23,02,46,15.00
2016,08,23,02,47,15.00
2016,08,23,02,48,15.00
2016,08,23,02,49,15.00
2016,08,23,02,50,15.00
2016,08,23,02,51,15.00
2016,08,23,02,52,15.00
2016,08,23,02,53,15.00
2016,08,23,02,54,15.00
2016,08,23,02,55,15.00
2016,08,23,02,56,15.00
2016,08,23,02,57,15.00
2016,08,23,02,58,15.00
2016,08,23,02,59,15.10
2016,08,23,03,00,15.10
2016,08,23,03,01,15.10
2016,08,23,03,02,15.10
2016,08,23,03,03,15.10
2016,08,23,03,04,15.10
2016,08,23,03,05,15.10
2016,08,23,03,06,15.10
2016,08,23,03,07,15.10
2016,08,23,03,08,15.10
2016,08,23,03,09,15.10
2016,08,23,03,10,15.10
2016,08,23,03,11,15.10
2016,08,23,03,12,15.10
2016,08,23,03,13,15.10
2016,08,23,03,14,15.10
2016,08,23,03,15,15.10
2016,08,23,03,16,15.10
2016,08,23,03,17,15.00
2016,08,23,03,18,15.00
2016,08,23,03,19,15.00
2016,08,23,03,20,15.00
2016,08,23,03,21,15.00
2016,08,23,03,22,14.90
2016,08,23,03,23,14.90
2016,08,23,03,24,14.90
2016,08,23,03,25,14.80
2016,08,23,03,26,14.80
2016,08,23,03,27,14.80
2016,08,23,03,28,14.80
2016,08,23,03,29,14.80
2016,08,23,03,30,14.70
2016,08,23,03,31,14.70
2016,08,23,03,32,14.70
2016,08,23,03,33,14.70
2016,08,23,03,34,14.60
2016,08,23,03,35,14.60
2016,08,23,03,36,14.60
2016,08,23,03,37,14.60
2016,08,23,03,38,14.50
2016,08,23,03,39,14.50
2016,08,23,03,40,14.50
2016,08,23,03,41,14.50
2016,08,23,03,42,14.50
2016,08,23,03,43,14.40
2016,08,23,03,44,14.40
2016,08,23,03,45,14.40
2016,08,23,03,46,14.40
2016,08,23,03,47,14.40
2016,08,23,03,48,14.40
2016,08,23,03,49,14.40
2016,08,23,03,50,14.40
2016,08,23,03,51,14.40
2016,08,23,03,52,14.30
2016,08,23,03,53,14.30
2016,08,23,03,54,14.30
2016,08,23,03,55,14.30
2016,08,23,03,56,14.30
2016,08,23,03,57,14.30
2016,08,23,03,58,14.30
2016,08,23,03,59,14.20
2016,08,23,04,00,14.20
2016,08,23,04,01,14.20
2016,08,23,04,02,14.20
2016,08,23,04,03,14.20
2016,08,23,04,04,14.20
2016,08,23,04,05,14.20
2016,08,23,04,06,14.10
2016,08,23,04,07,14.10
2016,08,23,04,08,14.00
2016,08,23,04,09,14.00
2016,08,23,04,10,14.00
2016,08,23,04,11,13.90
2016,08,23,04,12,13.90
2016,08,23,04,13,13.80
2016,08,23,04,14,13.80
2016,08,23,04,15,13.80
2016,08,23,04,16,13.70
2016,08,23,04,17,13.70
2016,08,23,04,18,13.70
2016,08,23,04,19,13.70
2016,08,23,04,20,13.70
2016,08,23,04,21,13.70
2016,08,23,04,22,13.70
2016,08,23,04,23,13.60
2016,08,23,04,24,13.60
2016,08,23,04,25,13.60
2016,08,23,04,26,13.60
2016,08,23,04,27,13.60
2016,08,23,04,28,13.60
2016,08,23,04,29,13.60
2016,08,23,04,30,13.70
2016,08,23,04,31,13.70
2016,08,23,04,32,13.70
2016,08,23,04,33,13.70
2016,08,23,04,34,13.80
2016,08,23,04,35,13.80
2016,08,23,04,36,13.80
2016,08,23,04,37,13.80
2016,08,23,04,38,13.90
2016,08,23,04,39,13.90
2016,08,23,04,40,13.90
2016,08,23,04,41,13.90
2016,08,23,04,42,13.90
2016,08,23,04,43,13.90
2016,08,23,04,44,13.90
2016,08,23,04,45,13.90
2016,08,23,04,46,13.90
2016,08,23,04,47,13.90
2016,08,23,04,48,13.90
2016,08,23,04,49,13.90
2016,08,23,04,50,13.90
2016,08,23,04,51,13.90
2016,08,23,04,52,13.90
2016,08,23,04,53,13.90
2016,08,23,04,54,13.90
2016,08,23,04,55,13.90
2016,08,23,04,56,13.90
2016,08,23,04,57,14.00
2016,08,23,04,58,14.00
2016,08,23,04,59,14.00
2016,08,23,05,00,14.10
2016,08,23,05,01,14.10
2016,08,23,05,02,14.20
2016,08,23,05,03,14.20
2016,08,23,05,04,14.20
2016,08,23,05,05,14.30
2016,08,23,05,06,14.30
2016,08,23,05,07,14.40
2016,08,23,05,08,14.40
2016,08,23,05,09,14.50
2016,08,23,05,10,14.50
2016,08,23,05,11,14.50
2016,08,23,05,12,14.50
2016,08,23,05,13,14.50
2016,08,23,05,14,14.50
2016,08,23,05,15,14.50
2016,08,23,05,16,14.50
2016,08,23,05,17,14.50
2016,08,23,05,18,14.50
2016,08,23,05,19,14.50
2016,08,23,05,20,14.40
2016,08,23,05,21,14.40
2016,08,23,05,22,14.40
2016,08,23,05,23,14.40
2016,08,23,05,24,14.40
2016,08,23,05,25,14.40
2016,08,23,05,26,14.40
2016,08,23,05,27,14.40
2016,08,23,05,28,14.30
2016,08,23,05,29,14.30
2016,08,23,05,30,14.30
2016,08,23,05,31,14.30
2016,08,23,05,32,14.30
2016,08,23,05,33,14.30
2016,08,23,05,34,14.30
2016,08,23,05,35,14.30
2016,08,23,05,36,14.30
2016,08,23,05,37,14.30
2016,08,23,05,38,14.30
2016,08,23,05,39,14.30
2016,08,23,05,40,14.30
2016,08,23,05,41,14.30
2016,08,23,05,42,14.30
2016,08,23,05,43,14.30
2016,08,23,05,44,14.30
2016,08,23,05,45,14.30
2016,08,23,05,46,14.30
2016,08,23,05,47,14.30
2016,08,23,05,48,14.40
2016,08,23,05,49,14.40
2016,08,23,05,50,14.40
2016,08,23,05,51,14.40
2016,08,23,05,52,14.40
2016,08,23,05,53,14.40
2016,08,23,05,54,14.50
2016,08,23,05,55,14.50
2016,08,23,05,56,14.50
2016,08,23,05,57,14.50
2016,08,23,05,58,14.50
2016,08,23,05,59,14.50
2016,08,23,06,00,14.60
2016,08,23,06,01,14.60
2016,08,23,06,02,14.60
2016,08,23,06,03,14.60
2016,08,23,06,04,14.70
2016,08,23,06,05,14.70
2016,08,23,06,06,14.80
2016,08,23,06,07,14.80
2016,08,23,06,08,14.80
2016,08,23,06,09,14.80
2016,08,23,06,10,14.90
2016,08,23,06,11,14.90
2016,08,23,06,12,14.90
2016,08,23,06,13,14.90
2016,08,23,06,14,14.90
2016,08,23,06,15,14.90
2016,08,23,06,16,15.00
2016,08,23,06,17,15.00
2016,08,23,06,18,15.00
2016,08,23,06,19,15.00
2016,08,23,06,20,15.00
2016,08,23,06,21,15.00
2016,08,23,06,22,15.00
2016,08,23,06,23,15.00
2016,08,23,06,24,14.90
2016,08,23,06,25,14.90
2016,08,23,06,26,14.90
2016,08,23,06,27,14.90
2016,08,23,06,28,14.90
2016,08,23,06,29,14.90
2016,08,23,06,30,14.90
2016,08,23,06,31,14.90
2016,08,23,06,32,14.90
2016,08,23,06,33,14.90
2016,08,23,06,34,14.90
2016,08,23,06,35,14.90
2016,08,23,06,36,14.90
2016,08,23,06,37,14.90
2016,08,23,06,38,14.90
2016,08,23,06,39,14.90
2016,08,23,06,40,14.90
2016,08,23,06,41,14.90
2016,08,23,06,42,14.90
2016,08,23,06,43,15.00
2016,08,23,06,44,15.00
2016,08,23,06,45,15.00
2016,08,23,06,46,15.00
2016,08,23,06,47,15.00
2016,08,23,06,48,15.00
2016,08,23,06,49,15.00
2016,08,23,06,50,15.00
2016,08,23,06,51,15.10
2016,08,23,06,52,15.10
2016,08,23,06,53,15.10
2016,08,23,06,54,15.10
2016,08,23,06,55,15.10
2016,08,23,06,56,15.10
2016,08,23,06,57,15.10
2016,08,23,06,58,15.20
2016,08,23,06,59,15.20
2016,08,23,07,00,15.20
2016,08,23,07,01,15.20
2016,08,23,07,02,15.30
2016,08,23,07,03,15.30
2016,08,23,07,04,15.30
2016,08,23,07,05,15.30
2016,08,23,07,06,15.30
2016,08,23,07,07,15.30
2016,08,23,07,08,15.30
2016,08,23,07,09,15.30
2016,08,23,07,10,15.40
2016,08,23,07,11,15.40
2016,08,23,07,12,15.40
2016,08,23,07,13,15.40
2016,08,23,07,14,15.40
2016,08,23,07,15,15.50
2016,08,23,07,16,15.50
2016,08,23,07,17,15.50
2016,08,23,07,18,15.50
2016,08,23,07,19,15.50
2016,08,23,07,20,15.50
2016,08,23,07,21,15.60
2016,08,23,07,22,15.60
2016,08,23,07,23,15.60
2016,08,23,07,24,15.70
2016,08,23,07,25,15.70
2016,08,23,07,26,15.70
2016,08,23,07,27,15.70
2016,08,23,07,28,15.70
2016,08,23,07,29,15.80
2016,08,23,07,30,15.80
2016,08,23,07,31,15.80
2016,08,23,07,32,15.80
2016,08,23,07,33,15.80
2016,08,23,07,34,15.80
2016,08,23,07,35,15.80
2016,08,23,07,36,15.80
2016,08,23,07,37,15.80
2016,08,23,07,38,15.80
2016,08,23,07,39,15.90
2016,08,23,07,40,15.90
2016,08,23,07,41,16.00
2016,08,23,07,42,16.10
2016,08,23,07,43,16.10
2016,08,23,07,44,16.10
2016,08,23,07,45,16.10
2016,08,23,07,46,16.10
2016,08,23,07,47,16.10
2016,08,23,07,48,16.10
2016,08,23,07,49,16.10
2016,08,23,07,50,16.10
2016,08,23,07,51,16.10
2016,08,23,07,52,16.10
2016,08,23,07,53,16.10
2016,08,23,07,54,16.10
2016,08,23,07,55,16.10
2016,08,23,07,56,16.10
2016,08,23,07,57,16.20
2016,08,23,07,58,16.20
2016,08,23,07,59,16.30
2016,08,23,08,00,16.30
2016,08,23,08,01,16.30
2016,08,23,08,02,16.40
2016,08,23,08,03,16.40
2016,08,23,08,04,16.50
2016,08,23,08,05,16.60
2016,08,23,08,06,16.60
2016,08,23,08,07,16.60
2016,08,23,08,08,16.70
2016,08,23,08,09,16.70
2016,08,23,08,10,16.70
2016,08,23,08,11,16.70
2016,08,23,08,12,16.70
2016,08,23,08,13,16.70
2016,08,23,08,14,16.70
2016,08,23,08,15,16.70
2016,08,23,08,16,16.70
2016,08,23,08,17,16.70
2016,08,23,08,18,16.70
2016,08,23,08,19,16.70
2016,08,23,08,20,16.70
2016,08,23,08,21,16.70
2016,08,23,08,22,16.70
2016,08,23,08,23,16.80
2016,08,23,08,24,16.80
2016,08,23,08,25,16.80
2016,08,23,08,26,16.80
2016,08,23,08,27,16.70
2016,08,23,08,28,16.70
2016,08,23,08,29,16.60
2016,08,23,08,30,16.60
2016,08,23,08,31,16.60
2016,08,23,08,32,16.60
2016,08,23,08,33,16.50
2016,08,23,08,34,16.40
2016,08,23,08,35,16.40
2016,08,23,08,36,16.40
2016,08,23,08,37,16.40
2016,08,23,08,38,16.40
2016,08,23,08,39,16.40
2016,08,23,08,40,16.40
2016,08,23,08,41,16.40
2016,08,23,08,42,16.40
2016,08,23,08,43,16.30
2016,08,23,08,44,16.30
2016,08,23,08,45,16.30
2016,08,23,08,46,16.40
2016,08,23,08,47,16.40
2016,08,23,08,48,16.50
2016,08,23,08,49,16.60
2016,08,23,08,50,16.70
2016,08,23,08,51,16.80
2016,08,23,08,52,16.90
2016,08,23,08,53,16.90
2016,08,23,08,54,17.00
2016,08,23,08,55,17.00
2016,08,23,08,56,17.10
2016,08,23,08,57,17.10
2016,08,23,08,58,17.10
2016,08,23,08,59,17.20
2016,08,23,09,00,17.20
2016,08,23,09,01,17.30
2016,08,23,09,02,17.30
2016,08,23,09,03,17.30
2016,08,23,09,04,17.20
2016,08,23,09,05,17.10
2016,08,23,09,06,17.00
2016,08,23,09,07,17.00
2016,08,23,09,08,16.90
2016,08,23,09,09,16.90
2016,08,23,09,10,16.90
2016,08,23,09,11,16.90
2016,08,23,09,12,16.90
2016,08,23,09,13,16.90
2016,08,23,09,14,16.90
2016,08,23,09,15,17.00
2016,08,23,09,16,17.10
2016,08,23,09,17,17.10
2016,08,23,09,18,17.10
2016,08,23,09,19,17.10
2016,08,23,09,20,17.20
2016,08,23,09,21,17.20
2016,08,23,09,22,17.20
2016,08,23,09,23,17.20
2016,08,23,09,24,17.30
2016,08,23,09,25,17.30
2016,08,23,09,26,17.30
2016,08,23,09,27,17.30
2016,08,23,09,28,17.30
2016,08,23,09,29,17.30
2016,08,23,09,30,17.30
2016,08,23,09,31,17.30
2016,08,23,09,32,17.30
2016,08,23,09,33,17.40
2016,08,23,09,34,17.40
2016,08,23,09,35,17.50
2016,08,23,09,36,17.50
2016,08,23,09,37,17.50
2016,08,23,09,38,17.50
2016,08,23,09,39,17.40
2016,08,23,09,40,17.30
2016,08,23,09,41,17.30
2016,08,23,09,42,17.40
2016,08,23,09,43,17.40
2016,08,23,09,44,17.40
2016,08,23,09,45,17.40
2016,08,23,09,46,17.40
2016,08,23,09,47,17.50
2016,08,23,09,48,17.50
2016,08,23,09,49,17.50
2016,08,23,09,50,17.60
2016,08,23,09,51,17.60
2016,08,23,09,52,17.60
2016,08,23,09,53,17.60
2016,08,23,09,54,17.60
2016,08,23,09,55,17.60
2016,08,23,09,56,17.70
2016,08,23,09,57,17.70
2016,08,23,09,58,17.80
2016,08,23,09,59,17.80
2016,08,23,10,00,17.80
2016,08,23,10,01,17.70
2016,08,23,10,02,17.70
2016,08,23,10,03,17.70
2016,08,23,10,04,17.70
2016,08,23,10,05,17.80
2016,08,23,10,06,17.80
2016,08,23,10,07,17.90
2016,08,23,10,08,18.00
2016,08,23,10,09,18.10
2016,08,23,10,10,18.10
2016,08,23,10,11,18.20
2016,08,23,10,12,18.20
2016,08,23,10,13,18.10
2016,08,23,10,14,18.10
2016,08,23,10,15,18.00
2016,08,23,10,16,17.90
2016,08,23,10,17,17.80
2016,08,23,10,18,17.80
2016,08,23,10,19,17.70
2016,08,23,10,20,17.70
2016,08,23,10,21,17.70
2016,08,23,10,22,17.70
2016,08,23,10,23,17.70
2016,08,23,10,24,17.70
2016,08,23,10,25,17.70
2016,08,23,10,26,17.70
2016,08,23,10,27,17.70
2016,08,23,10,28,17.70
2016,08,23,10,29,17.80
2016,08,23,10,30,17.90
2016,08,23,10,31,17.90
2016,08,23,10,32,17.90
2016,08,23,10,33,17.90
2016,08,23,10,34,17.90
2016,08,23,10,35,18.00
2016,08,23,10,36,18.00
2016,08,23,10,37,17.90
2016,08,23,10,38,17.90
2016,08,23,10,39,17.90
2016,08,23,10,40,18.00
2016,08,23,10,41,18.10
2016,08,23,10,42,18.10
2016,08,23,10,43,18.00
2016,08,23,10,44,17.90
2016,08,23,10,45,17.90
2016,08,23,10,46,17.90
2016,08,23,10,47,17.90
2016,08,23,10,48,17.80
2016,08,23,10,49,17.80
2016,08,23,10,50,17.80
2016,08,23,10,51,17.90
2016,08,23,10,52,17.90
2016,08,23,10,53,17.90
2016,08,23,10,54,17.90
2016,08,23,10,55,17.90
2016,08,23,10,56,17.90
2016,08,23,10,57,18.00
2016,08,23,10,58,18.10
2016,08,23,10,59,18.20
2016,08,23,11,00,18.20
2016,08,23,11,01,18.20
2016,08,23,11,02,18.30
2016,08,23,11,03,18.30
2016,08,23,11,04,18.40
2016,08,23,11,05,18.50
2016,08,23,11,06,18.60
2016,08,23,11,07,18.60
2016,08,23,11,08,18.70
2016,08,23,11,09,18.80
2016,08,23,11,10,18.90
2016,08,23,11,11,19.00
2016,08,23,11,12,19.00
2016,08,23,11,13,18.80
2016,08,23,11,14,18.70
2016,08,23,11,15,18.60
2016,08,23,11,16,18.50
2016,08,23,11,17,18.40
2016,08,23,11,18,18.30
2016,08,23,11,19,18.30
2016,08,23,11,20,18.20
2016,08,23,11,21,18.20
2016,08,23,11,22,18.20
2016,08,23,11,23,18.20
2016,08,23,11,24,18.20
2016,08,23,11,25,18.20
2016,08,23,11,26,18.20
2016,08,23,11,27,18.20
2016,08,23,11,28,18.30
2016,08,23,11,29,18.30
2016,08,23,11,30,18.50
2016,08,23,11,31,18.50
2016,08,23,11,32,18.60
2016,08,23,11,33,18.70
2016,08,23,11,34,18.90
2016,08,23,11,35,19.00
2016,08,23,11,36,19.10
2016,08,23,11,37,19.10
2016,08,23,11,38,19.10
2016,08,23,11,39,19.10
2016,08,23,11,40,19.10
2016,08,23,11,41,19.10
2016,08,23,11,42,18.90
2016,08,23,11,43,18.70
2016,08,23,11,44,18.60
2016,08,23,11,45,18.50
2016,08,23,11,46,18.40
2016,08,23,11,47,18.30
2016,08,23,11,48,18.20
2016,08,23,11,49,18.20
2016,08,23,11,50,18.20
2016,08,23,11,51,18.20
2016,08,23,11,52,18.20
2016,08,23,11,53,18.20
2016,08,23,11,54,18.30
2016,08,23,11,55,18.30
2016,08,23,11,56,18.30
2016,08,23,11,57,18.30
2016,08,23,11,58,18.30
2016,08,23,11,59,18.40
2016,08,23,12,00,18.50
2016,08,23,12,01,18.70
2016,08,23,12,02,18.80
2016,08,23,12,03,18.90
2016,08,23,12,04,19.10
2016,08,23,12,05,19.20
2016,08,23,12,06,19.30
2016,08,23,12,07,19.30
2016,08,23,12,08,19.20
2016,08,23,12,09,19.20
2016,08,23,12,10,19.10
2016,08,23,12,11,19.10
2016,08,23,12,12,19.10
2016,08,23,12,13,18.90
2016,08,23,12,14,18.90
2016,08,23,12,15,18.80
2016,08,23,12,16,18.70
2016,08,23,12,17,18.70
2016,08,23,12,18,18.70
2016,08,23,12,19,18.70
2016,08,23,12,20,18.70
2016,08,23,12,21,18.80
2016,08,23,12,22,18.80
2016,08,23,12,23,18.80
2016,08,23,12,24,18.90
2016,08,23,12,25,18.90
2016,08,23,12,26,18.80
2016,08,23,12,27,18.70
2016,08,23,12,28,18.70
2016,08,23,12,29,18.80
2016,08,23,12,30,18.80
2016,08,23,12,31,18.80
2016,08,23,12,32,18.90
2016,08,23,12,33,18.90
2016,08,23,12,34,19.00
2016,08,23,12,35,19.10
2016,08,23,12,36,19.20
2016,08,23,12,37,19.30
2016,08,23,12,38,19.50
2016,08,23,12,39,19.50
2016,08,23,12,40,19.60
2016,08,23,12,41,19.60
2016,08,23,12,42,19.70
2016,08,23,12,43,19.80
2016,08,23,12,44,19.80
2016,08,23,12,45,19.90
2016,08,23,12,46,19.90
2016,08,23,12,47,19.90
2016,08,23,12,48,19.90
2016,08,23,12,49,20.00
2016,08,23,12,50,19.90
2016,08,23,12,51,19.90
2016,08,23,12,52,19.90
2016,08,23,12,53,19.90
2016,08,23,12,54,19.90
2016,08,23,12,55,19.90
2016,08,23,12,56,19.90
2016,08,23,12,57,19.90
2016,08,23,12,58,19.90
2016,08,23,12,59,19.80
2016,08,23,13,00,19.70
2016,08,23,13,01,19.70
2016,08,23,13,02,19.70
2016,08,23,13,03,19.70
2016,08,23,13,04,19.70
2016,08,23,13,05,19.60
2016,08,23,13,06,19.60
2016,08,23,13,07,19.70
2016,08,23,13,08,19.80
2016,08,23,13,09,19.90
2016,08,23,13,10,19.90
2016,08,23,13,11,19.90
2016,08,23,13,12,19.90
2016,08,23,13,13,19.80
2016,08,23,13,14,19.70
2016,08,23,13,15,19.70
2016,08,23,13,16,19.60
2016,08,23,13,17,19.50
2016,08,23,13,18,19.50
2016,08,23,13,19,19.50
2016,08,23,13,20,19.50
2016,08,23,13,21,19.50
2016,08,23,13,22,19.60
2016,08,23,13,23,19.70
2016,08,23,13,24,19.80
2016,08,23,13,25,19.90
2016,08,23,13,26,19.90
2016,08,23,13,27,19.90
2016,08,23,13,28,19.90
2016,08,23,13,29,19.90
2016,08,23,13,30,19.90
2016,08,23,13,31,19.80
2016,08,23,13,32,19.70
2016,08,23,13,33,19.60
2016,08,23,13,34,19.60
2016,08,23,13,35,19.60
2016,08,23,13,36,19.60
2016,08,23,13,37,19.60
2016,08,23,13,38,19.60
2016,08,23,13,39,19.70
2016,08,23,13,40,19.80
2016,08,23,13,41,19.90
2016,08,23,13,42,20.00
2016,08,23,13,43,20.10
2016,08,23,13,44,20.20
2016,08,23,13,45,20.10
2016,08,23,13,46,20.10
2016,08,23,13,47,20.10
2016,08,23,13,48,20.10
2016,08,23,13,49,20.10
2016,08,23,13,50,20.10
2016,08,23,13,51,20.10
2016,08,23,13,52,20.10
2016,08,23,13,53,20.10
2016,08,23,13,54,20.10
2016,08,23,13,55,20.10
2016,08,23,13,56,20.10
2016,08,23,13,57,20.10
2016,08,23,13,58,20.10
2016,08,23,13,59,20.20
2016,08,23,14,00,20.20
2016,08,23,14,01,20.30
2016,08,23,14,02,20.40
2016,08,23,14,03,20.40
2016,08,23,14,04,20.50
2016,08,23,14,05,20.50
2016,08,23,14,06,20.50
2016,08,23,14,07,20.60
2016,08,23,14,08,20.70
2016,08,23,14,09,20.80
2016,08,23,14,10,20.80
2016,08,23,14,11,20.80
2016,08,23,14,12,20.80
2016,08,23,14,13,20.90
2016,08,23,14,14,20.90
2016,08,23,14,15,21.00
2016,08,23,14,16,21.00
2016,08,23,14,17,21.00
2016,08,23,14,18,21.00
2016,08,23,14,19,20.90
2016,08,23,14,20,20.90
2016,08,23,14,21,20.80
2016,08,23,14,22,20.80
2016,08,23,14,23,20.80
2016,08,23,14,24,20.80
2016,08,23,14,25,20.80
2016,08,23,14,26,20.80
2016,08,23,14,27,20.80
2016,08,23,14,28,20.80
2016,08,23,14,29,20.80
2016,08,23,14,30,20.70
2016,08,23,14,31,20.70
2016,08,23,14,32,20.70
2016,08,23,14,33,20.80
2016,08,23,14,34,20.80
2016,08,23,14,35,20.80
2016,08,23,14,36,20.90
2016,08,23,14,37,20.90
2016,08,23,14,38,20.90
2016,08,23,14,39,21.00
2016,08,23,14,40,21.00
2016,08,23,14,41,21.10
2016,08,23,14,42,21.10
2016,08,23,14,43,21.20
2016,08,23,14,44,21.20
2016,08,23,14,45,21.30
2016,08,23,14,46,21.30
2016,08,23,14,47,21.30
2016,08,23,14,48,21.30
2016,08,23,14,49,21.30
2016,08,23,14,50,21.40
2016,08,23,14,51,21.40
2016,08,23,14,52,21.40
2016,08,23,14,53,21.50
2016,08,23,14,54,21.60
2016,08,23,14,55,21.60
2016,08,23,14,56,21.80
2016,08,23,14,57,21.80
2016,08,23,14,58,21.80
2016,08,23,14,59,21.80
2016,08,23,15,00,21.70
2016,08,23,15,01,21.60
2016,08,23,15,02,21.60
2016,08,23,15,03,21.60
2016,08,23,15,04,21.60
2016,08,23,15,05,21.60
2016,08,23,15,06,21.70
2016,08,23,15,07,21.80
2016,08,23,15,08,21.80
2016,08,23,15,09,21.80
2016,08,23,15,10,21.90
2016,08,23,15,11,21.90
2016,08,23,15,12,22.00
2016,08,23,15,13,22.10
2016,08,23,15,14,22.10
2016,08,23,15,15,22.20
2016,08,23,15,16,22.30
2016,08,23,15,17,22.40
2016,08,23,15,18,22.50
2016,08,23,15,19,22.50
2016,08,23,15,20,22.60
2016,08,23,15,21,22.60
2016,08,23,15,22,22.50
2016,08,23,15,23,22.40
2016,08,23,15,24,22.20
2016,08,23,15,25,22.20
2016,08,23,15,26,22.10
2016,08,23,15,27,22.10
2016,08,23,15,28,22.20
2016,08,23,15,29,22.20
2016,08,23,15,30,22.30
2016,08,23,15,31,22.40
2016,08,23,15,32,22.50
2016,08,23,15,33,22.60
2016,08,23,15,34,22.60
2016,08,23,15,35,22.60
2016,08,23,15,36,22.70
2016,08,23,15,37,22.70
2016,08,23,15,38,22.90
2016,08,23,15,39,22.90
2016,08,23,15,40,22.90
2016,08,23,15,41,22.90
2016,08,23,15,42,22.90
2016,08,23,15,43,22.90
2016,08,23,15,44,22.90
2016,08,23,15,45,22.80
2016,08,23,15,46,22.70
2016,08,23,15,47,22.70
2016,08,23,15,48,22.70
2016,08,23,15,49,22.70
2016,08,23,15,50,22.70
2016,08,23,15,51,22.70
2016,08,23,15,52,22.60
2016,08,23,15,53,22.70
2016,08,23,15,54,22.60
2016,08,23,15,55,22.60
2016,08,23,15,56,22.60
2016,08,23,15,57,22.50
2016,08,23,15,58,22.50
2016,08,23,15,59,22.50
2016,08,23,16,00,22.50
2016,08,23,16,01,22.40
2016,08,23,16,02,22.30
2016,08,23,16,03,22.30
2016,08,23,16,04,22.20
2016,08,23,16,05,22.20
2016,08,23,16,06,22.20
2016,08,23,16,07,22.20
2016,08,23,16,08,22.30
2016,08,23,16,09,22.30
2016,08,23,16,10,22.30
2016,08,23,16,11,22.40
2016,08,23,16,12,22.40
2016,08,23,16,13,22.40
2016,08,23,16,14,22.40
2016,08,23,16,15,22.50
2016,08,23,16,16,22.50
2016,08,23,16,17,22.50
2016,08,23,16,18,22.50
2016,08,23,16,19,22.60
2016,08,23,16,20,22.60
2016,08,23,16,21,22.60
2016,08,23,16,22,22.60
2016,08,23,16,23,22.60
2016,08,23,16,24,22.60
2016,08,23,16,25,22.60
2016,08,23,16,26,22.60
2016,08,23,16,27,22.60
2016,08,23,16,28,22.60
2016,08,23,16,29,22.60
2016,08,23,16,30,22.60
2016,08,23,16,31,22.60
2016,08,23,16,32,22.60
2016,08,23,16,33,22.60
2016,08,23,16,34,22.60
2016,08,23,16,35,22.60
2016,08,23,16,36,22.60
2016,08,23,16,37,22.70
2016,08,23,16,38,22.70
2016,08,23,16,39,22.80
2016,08,23,16,40,22.90
2016,08,23,16,41,22.90
2016,08,23,16,42,22.90
2016,08,23,16,43,22.90
2016,08,23,16,44,23.10
2016,08,23,16,45,23.10
2016,08,23,16,46,23.10
2016,08,23,16,47,23.10
2016,08,23,16,48,23.10
2016,08,23,16,49,23.10
2016,08,23,16,50,23.10
2016,08,23,16,51,23.10
2016,08,23,16,52,23.00
2016,08,23,16,53,22.90
2016,08,23,16,54,22.90
2016,08,23,16,55,22.90
2016,08,23,16,56,22.90
2016,08,23,16,57,23.00
2016,08,23,16,58,23.10
2016,08,23,16,59,23.10
2016,08,23,17,00,23.20
2016,08,23,17,01,23.30
2016,08,23,17,02,23.30
2016,08,23,17,03,23.30
2016,08,23,17,04,23.40
2016,08,23,17,05,23.40
2016,08,23,17,06,23.40
2016,08,23,17,07,23.40
2016,08,23,17,08,23.40
2016,08,23,17,09,23.40
2016,08,23,17,10,23.40
2016,08,23,17,11,23.40
2016,08,23,17,12,23.40
2016,08,23,17,13,23.40
2016,08,23,17,14,23.40
2016,08,23,17,15,23.40
2016,08,23,17,16,23.60
2016,08,23,17,17,23.70
2016,08,23,17,18,23.70
2016,08,23,17,19,23.80